�N����,����,�~����,�C��,���x,�C��,����,���ϕ���,�ő�u�ԕ���,�ő厞����,���˗�,�I�_���x,�n�����x,�ő啗���N��,DTYPE
"22/10/08","00:10",0.0,16.1,97.9,1011.4,290.2,1.0,1.4,317.7,0.00,15.8,19.4,"00:09:40",1
"22/10/08","00:20",0.0,15.9,98.0,1011.6,319.8,0.8,1.7,304.6,0.00,15.6,19.4,"00:16:36",1
"22/10/08","00:30",0.0,16.0,97.5,1011.6,277.9,0.8,1.7,249.0,0.00,15.6,19.3,"00:24:10",1
"22/10/08","00:40",0.0,15.8,98.0,1011.9,283.3,0.5,1.1,311.2,0.00,15.5,19.2,"00:32:56",1
"22/10/08","00:50",0.0,16.0,97.6,1011.9,296.8,0.8,1.6,294.9,0.00,15.7,19.2,"00:45:24",1
"22/10/08","01:00",0.0,15.8,98.1,1012.1,332.0,1.0,2.0,341.6,0.00,15.5,19.4,"00:58:20",1
"22/10/08","01:10",0.0,15.8,97.6,1012.1,316.2,1.0,1.9,340.9,0.00,15.5,19.3,"01:08:02",1
"22/10/08","01:20",0.0,15.6,98.0,1012.1,324.8,1.0,1.6,7.6,0.00,15.3,19.3,"01:12:12",1
"22/10/08","01:30",0.0,15.6,97.6,1011.9,300.2,0.6,1.1,303.9,0.00,15.3,19.4,"01:20:48",1
"22/10/08","01:40",0.0,15.5,98.1,1012.3,309.1,0.6,2.1,330.8,0.00,15.2,19.2,"01:38:56",1
"22/10/08","01:50",0.0,15.5,97.7,1012.3,317.7,1.1,2.2,337.8,0.00,15.2,19.2,"01:40:20",1
"22/10/08","02:00",0.0,15.2,98.2,1012.1,310.9,1.0,1.6,323.9,0.00,15.0,19.1,"01:52:58",1
"22/10/08","02:10",0.0,15.3,97.7,1011.6,319.6,0.7,1.3,333.7,0.00,15.0,19.2,"02:00:28",1
"22/10/08","02:20",0.0,14.9,98.2,1011.6,288.4,0.7,1.6,332.1,0.00,14.7,19.3,"02:11:14",1
"22/10/08","02:30",0.0,14.9,97.9,1012.1,314.0,0.3,1.1,267.1,0.00,14.6,19.3,"02:21:02",1
"22/10/08","02:40",0.0,14.8,98.3,1012.6,305.5,1.1,1.6,317.0,0.00,14.6,19.2,"02:38:12",1
"22/10/08","02:50",0.0,14.9,97.9,1013.0,304.1,0.6,1.7,329.8,0.00,14.6,19.1,"02:41:22",1
"22/10/08","03:00",0.0,14.7,98.4,1012.8,312.5,1.2,1.9,313.8,0.00,14.5,19.2,"02:50:42",1
"22/10/08","03:10",0.0,14.8,97.9,1012.8,311.1,0.8,1.7,335.5,0.00,14.5,19.1,"03:00:12",1
"22/10/08","03:20",0.0,14.6,98.4,1012.8,316.4,1.0,1.9,352.1,0.00,14.4,18.9,"03:15:00",1
"22/10/08","03:30",0.0,14.9,98.0,1012.8,337.7,1.0,1.6,335.1,0.00,14.6,19.1,"03:27:22",1
"22/10/08","03:40",0.0,14.9,97.9,1012.8,320.9,0.8,2.0,334.3,0.00,14.6,19.2,"03:36:02",1
"22/10/08","03:50",0.0,14.8,98.4,1012.6,314.7,1.0,1.7,324.7,0.00,14.6,19.1,"03:48:06",1
"22/10/08","04:00",0.0,14.9,98.0,1012.8,330.9,1.2,2.0,326.4,0.00,14.6,19.1,"03:53:24",1
"22/10/08","04:10",0.0,14.9,97.9,1012.8,318.5,1.2,1.6,336.4,0.00,14.6,19.1,"04:00:12",1
"22/10/08","04:20",0.0,14.8,98.4,1012.8,268.2,1.0,1.4,246.6,0.00,14.6,19.1,"04:11:50",1
"22/10/08","04:30",0.0,15.2,97.9,1012.6,283.6,1.1,2.7,241.6,0.00,14.9,19.0,"04:22:14",1
"22/10/08","04:40",0.0,15.0,98.4,1012.3,283.7,0.8,1.8,321.6,0.00,14.8,19.1,"04:35:48",1
"22/10/08","04:50",0.0,15.1,97.9,1012.3,272.9,1.3,4.0,231.0,0.00,14.8,19.0,"04:48:16",1
"22/10/08","05:00",0.0,15.4,98.3,1012.8,253.2,1.6,2.8,338.2,0.00,15.2,19.1,"04:59:36",1
"22/10/08","05:10",0.0,15.5,97.7,1012.8,218.3,1.0,2.0,179.3,0.00,15.2,19.2,"05:08:24",1
"22/10/08","05:20",0.0,15.3,98.0,1013.0,314.9,1.2,2.5,343.7,0.00,15.0,19.0,"05:14:16",1
"22/10/08","05:30",0.0,15.2,97.4,1012.6,223.5,0.6,1.4,220.1,0.00,14.8,19.0,"05:28:56",1
"22/10/08","05:40",0.0,15.0,98.1,1013.0,322.7,0.8,2.1,350.9,0.00,14.7,19.0,"05:35:12",1
"22/10/08","05:50",0.0,15.0,97.6,1013.3,293.8,1.1,1.9,329.4,0.00,14.7,18.9,"05:42:16",1
"22/10/08","06:00",0.0,14.8,97.9,1013.5,279.2,1.2,2.7,323.4,0.00,14.5,18.9,"05:56:56",1
"22/10/08","06:10",0.0,15.0,97.7,1013.5,327.4,1.1,1.7,10.0,0.00,14.7,18.9,"06:06:08",1
"22/10/08","06:20",0.0,14.8,97.7,1013.8,316.2,1.3,2.6,356.2,0.00,14.5,19.1,"06:19:20",1
"22/10/08","06:30",0.0,14.7,97.8,1014.0,321.9,1.6,2.2,337.2,0.00,14.4,19.1,"06:20:32",1
"22/10/08","06:40",0.0,14.9,97.6,1014.2,307.5,1.5,2.7,340.9,0.00,14.6,19.1,"06:31:36",1
"22/10/08","06:50",0.0,15.1,97.4,1014.5,333.3,1.2,2.2,333.4,0.00,14.7,19.1,"06:43:20",1
"22/10/08","07:00",0.0,14.9,97.4,1014.2,335.8,1.7,2.6,337.7,0.00,14.5,19.0,"06:51:52",1
"22/10/08","07:10",0.0,15.0,97.4,1014.5,331.4,1.7,2.7,353.1,0.00,14.6,19.2,"07:00:02",1
"22/10/08","07:20",0.0,15.1,97.3,1014.5,327.5,1.7,2.5,357.0,0.01,14.7,18.8,"07:10:48",1
"22/10/08","07:30",0.0,15.3,97.3,1014.5,310.4,1.3,2.2,321.7,0.03,14.9,18.8,"07:28:40",1
"22/10/08","07:40",0.0,15.7,97.0,1014.7,314.5,1.2,1.9,324.5,0.05,15.3,18.9,"07:35:20",1
"22/10/08","07:50",0.0,15.9,96.7,1014.7,330.0,1.2,2.5,334.2,0.04,15.4,18.7,"07:43:12",1
"22/10/08","08:00",0.0,16.2,96.5,1014.7,315.6,1.0,2.4,317.4,0.05,15.7,18.9,"07:54:56",1
"22/10/08","08:10",0.0,16.5,96.3,1015.2,288.1,1.1,1.8,254.3,0.09,15.9,18.9,"08:09:12",1
"22/10/08","08:20",0.0,17.1,95.1,1015.2,308.6,1.5,3.5,340.8,0.13,16.3,18.9,"08:15:20",1
"22/10/08","08:30",0.0,17.4,94.0,1015.6,308.8,1.5,3.3,342.8,0.11,16.5,19.1,"08:25:36",1
"22/10/08","08:40",0.0,17.9,91.8,1015.4,315.7,2.3,4.7,344.2,0.17,16.6,19.0,"08:34:16",1
"22/10/08","08:50",0.0,18.2,89.5,1016.4,322.9,2.2,4.3,340.8,0.14,16.5,19.1,"08:49:20",1
"22/10/08","09:00",0.0,18.7,86.2,1016.4,316.4,2.0,4.4,335.2,0.18,16.4,19.1,"08:56:40",1
"22/10/08","09:10",0.0,18.7,83.3,1016.4,311.9,2.0,3.7,250.2,0.14,15.9,18.9,"09:07:28",1
"22/10/08","09:20",0.0,18.8,82.5,1016.6,320.7,1.7,3.7,323.7,0.11,15.8,18.9,"09:19:36",1
"22/10/08","09:30",0.0,18.6,81.6,1016.4,307.2,2.0,3.6,311.3,0.11,15.4,19.0,"09:25:52",1
"22/10/08","09:40",0.0,18.7,81.0,1016.6,328.5,2.0,3.6,344.7,0.12,15.4,19.1,"09:31:44",1
"22/10/08","09:50",0.0,18.9,80.8,1016.4,313.7,1.6,3.3,342.4,0.15,15.6,19.2,"09:41:52",1
"22/10/08","10:00",0.0,19.0,78.4,1015.9,311.6,1.8,4.9,264.8,0.17,15.2,19.0,"09:58:08",1
"22/10/08","10:10",0.0,19.5,77.6,1016.1,317.6,1.1,3.7,334.3,0.16,15.5,19.0,"10:02:40",1
"22/10/08","10:20",0.0,19.8,74.3,1015.9,334.5,1.7,3.5,323.8,0.22,15.1,19.2,"10:17:44",1
"22/10/08","10:30",0.0,20.6,72.5,1015.6,325.2,1.1,2.8,118.9,0.22,15.5,19.3,"10:25:20",1
"22/10/08","10:40",0.0,20.7,70.2,1015.9,300.2,1.5,2.9,344.3,0.25,15.1,19.2,"10:37:20",1
"22/10/08","10:50",0.0,20.7,67.2,1015.6,1.3,1.7,3.6,21.9,0.27,14.4,19.2,"10:47:12",1
"22/10/08","11:00",0.0,21.0,65.8,1015.6,1.7,2.0,4.1,35.7,0.34,14.4,19.2,"10:59:04",1
"22/10/08","11:10",0.0,21.2,66.3,1015.2,343.9,1.8,5.4,11.9,0.29,14.7,19.2,"11:07:04",1
"22/10/08","11:20",0.0,20.8,66.4,1015.6,15.6,2.3,7.5,29.2,0.28,14.4,19.2,"11:17:52",1
"22/10/08","11:30",0.0,20.6,66.6,1015.2,356.5,2.5,5.6,13.7,0.28,14.2,19.5,"11:27:52",1
"22/10/08","11:40",0.0,20.6,67.1,1015.6,352.0,2.5,4.9,346.1,0.28,14.3,19.5,"11:36:48",1
"22/10/08","11:50",0.0,20.2,68.0,1015.9,5.9,1.8,4.7,14.8,0.11,14.2,19.4,"11:41:20",1
"22/10/08","12:00",0.0,19.7,70.2,1015.6,357.0,1.8,3.9,6.9,0.11,14.2,19.4,"11:51:28",1
"22/10/08","12:10",0.0,19.8,71.3,1015.4,350.2,2.0,4.1,334.8,0.15,14.5,19.5,"12:07:20",1
"22/10/08","12:20",0.0,19.7,71.7,1015.4,341.0,2.2,5.0,336.9,0.16,14.5,19.6,"12:12:56",1
"22/10/08","12:30",0.0,19.8,71.9,1015.4,339.8,2.7,5.7,353.7,0.18,14.6,19.7,"12:20:16",1
"22/10/08","12:40",0.0,19.9,71.5,1014.9,341.5,2.3,5.0,327.8,0.21,14.6,19.7,"12:36:32",1
"22/10/08","12:50",0.0,19.7,70.7,1015.2,342.6,2.8,6.4,341.1,0.19,14.3,19.5,"12:44:08",1
"22/10/08","13:00",0.0,19.2,70.6,1014.9,329.4,3.5,6.8,339.9,0.21,13.8,19.7,"12:59:12",1
"22/10/08","13:10",0.0,19.2,70.5,1014.9,332.1,3.5,7.2,350.7,0.22,13.8,19.7,"13:07:20",1
"22/10/08","13:20",0.0,19.7,70.6,1015.2,333.3,2.8,6.3,317.6,0.25,14.3,19.7,"13:10:56",1
"22/10/08","13:30",0.0,19.7,68.5,1014.9,332.9,3.5,5.8,328.3,0.27,13.8,19.8,"13:29:12",1
"22/10/08","13:40",0.0,19.5,68.1,1014.7,336.6,3.4,7.1,6.1,0.21,13.5,19.7,"13:31:28",1
"22/10/08","13:50",0.0,19.9,67.7,1014.9,334.4,3.1,5.6,319.0,0.27,13.8,19.8,"13:48:32",1
"22/10/08","14:00",0.0,20.0,67.5,1014.7,332.6,2.1,4.8,355.3,0.21,13.8,19.9,"13:51:04",1
"22/10/08","14:10",0.0,20.3,66.9,1014.7,325.2,2.2,4.2,345.2,0.30,14.0,19.9,"14:03:04",1
"22/10/08","14:20",0.0,20.3,64.7,1014.7,329.0,3.1,6.0,351.8,0.34,13.5,19.9,"14:16:48",1
"22/10/08","14:30",0.0,19.9,64.3,1014.7,333.1,3.6,7.0,2.2,0.26,13.0,20.0,"14:23:36",1
"22/10/08","14:40",0.0,19.6,64.3,1014.7,325.8,4.1,9.1,323.1,0.27,12.7,20.0,"14:33:20",1
"22/10/08","14:50",0.0,19.8,64.7,1014.9,339.0,3.6,7.1,332.2,0.25,13.0,19.9,"14:44:48",1
"22/10/08","15:00",0.0,19.4,64.8,1014.7,334.2,4.1,8.7,346.2,0.22,12.7,20.0,"14:58:00",1
"22/10/08","15:10",0.0,19.7,65.1,1014.5,341.1,3.2,6.7,331.2,0.25,13.0,20.1,"15:05:04",1
"22/10/08","15:20",0.0,20.3,64.7,1014.7,338.9,3.0,5.8,324.1,0.33,13.5,20.2,"15:13:44",1
"22/10/08","15:30",0.0,19.6,64.4,1014.9,326.7,3.0,5.7,340.3,0.16,12.7,20.0,"15:21:04",1
"22/10/08","15:40",0.0,19.0,65.7,1014.7,331.1,3.5,6.6,347.2,0.13,12.5,20.1,"15:36:24",1
"22/10/08","15:50",0.0,18.8,65.9,1014.9,332.3,3.9,7.7,346.9,0.12,12.3,20.1,"15:46:00",1
"22/10/08","16:00",0.0,18.8,66.1,1014.9,338.4,3.5,6.2,350.9,0.12,12.4,20.0,"15:55:52",1
"22/10/08","16:10",0.0,18.8,65.9,1015.2,337.4,3.0,7.4,345.7,0.12,12.3,19.9,"16:07:52",1
"22/10/08","16:20",0.0,18.7,66.7,1015.4,333.0,2.6,6.6,319.1,0.09,12.4,20.0,"16:16:00",1
"22/10/08","16:30",0.0,19.0,66.0,1015.4,344.0,2.8,6.5,336.3,0.15,12.6,20.2,"16:28:16",1
"22/10/08","16:40",0.0,19.4,64.9,1015.6,331.6,2.6,6.4,352.7,0.13,12.7,19.9,"16:32:00",1
"22/10/08","16:50",0.0,19.7,64.2,1015.6,333.2,2.5,5.1,341.0,0.09,12.8,20.2,"16:46:24",1
"22/10/08","17:00",0.0,19.6,63.9,1015.9,336.1,2.0,4.7,323.6,0.06,12.6,20.1,"16:59:52",1
"22/10/08","17:10",0.0,19.0,63.8,1015.6,336.0,2.5,4.5,324.3,0.04,12.0,20.0,"17:08:16",1
"22/10/08","17:20",0.0,18.5,65.1,1015.9,331.7,2.3,4.7,337.0,0.02,11.9,20.2,"17:12:08",1
"22/10/08","17:30",0.0,17.9,67.1,1016.6,317.5,1.1,2.2,342.9,0.00,11.8,20.0,"17:21:44",1
"22/10/08","17:40",0.0,17.5,68.6,1016.6,315.6,1.6,2.6,317.0,0.00,11.7,19.9,"17:33:04",1
"22/10/08","17:50",0.0,17.0,70.2,1016.1,325.1,1.5,2.7,339.2,0.00,11.6,20.1,"17:41:12",1
"22/10/08","18:00",0.0,16.7,71.3,1016.4,319.4,1.6,3.7,341.3,0.00,11.5,19.9,"17:54:08",1
"22/10/08","18:10",0.0,16.4,72.3,1016.6,324.5,1.8,4.4,325.5,0.00,11.4,20.0,"18:09:44",1
"22/10/08","18:20",0.0,16.2,72.9,1016.8,327.3,1.8,3.5,324.3,0.00,11.4,20.1,"18:10:32",1
"22/10/08","18:30",0.0,16.0,73.5,1016.8,325.8,1.8,3.6,351.1,0.00,11.3,20.1,"18:24:02",1
"22/10/08","18:40",0.0,15.9,74.1,1016.8,331.1,2.1,4.3,347.9,0.00,11.3,19.8,"18:34:16",1
"22/10/08","18:50",0.0,15.6,74.7,1017.1,332.1,1.7,3.2,338.7,0.00,11.2,20.1,"18:47:12",1
"22/10/08","19:00",0.0,15.5,75.4,1017.1,332.1,1.8,4.2,339.3,0.00,11.2,19.8,"18:53:20",1
"22/10/08","19:10",0.0,15.2,75.9,1017.1,330.6,1.7,3.1,341.8,0.00,11.0,19.9,"19:00:56",1
"22/10/08","19:20",0.0,15.1,76.1,1017.1,323.2,1.7,2.8,299.8,0.00,11.0,19.7,"19:13:06",1
"22/10/08","19:30",0.0,15.3,75.5,1017.5,323.7,2.2,3.7,347.1,0.00,11.0,19.8,"19:24:42",1
"22/10/08","19:40",0.0,15.3,74.6,1018.0,332.0,2.0,3.4,345.8,0.00,10.9,19.5,"19:30:16",1
"22/10/08","19:50",0.0,15.1,74.9,1017.8,333.8,1.7,3.9,343.2,0.00,10.7,19.7,"19:49:12",1
"22/10/08","20:00",0.0,15.0,74.9,1018.0,329.4,1.8,3.1,352.6,0.00,10.6,19.7,"19:51:00",1
"22/10/08","20:10",0.0,14.9,75.8,1018.0,293.3,1.3,3.3,330.9,0.00,10.7,19.7,"20:00:08",1
"22/10/08","20:20",0.0,14.1,77.3,1018.0,265.7,0.6,1.2,248.6,0.00,10.2,19.7,"20:11:54",1
"22/10/08","20:30",0.0,13.4,78.8,1017.8,308.8,1.2,1.7,307.2,0.00,9.8,19.5,"20:29:04",1
"22/10/08","20:40",0.0,13.0,80.6,1018.5,304.6,1.2,1.9,324.7,0.00,9.8,19.4,"20:36:28",1
"22/10/08","20:50",0.0,12.8,82.8,1018.2,327.7,1.6,2.1,330.2,0.00,10.0,19.5,"20:49:28",1
"22/10/08","21:00",0.0,12.5,84.4,1018.5,318.9,1.7,2.2,328.3,0.00,10.0,19.4,"20:50:50",1
"22/10/08","21:10",0.0,12.4,85.9,1018.2,310.6,1.6,2.2,320.7,0.00,10.1,19.4,"21:07:18",1
"22/10/08","21:20",0.0,12.3,86.9,1018.0,315.4,1.7,2.4,336.5,0.00,10.2,19.3,"21:13:04",1
"22/10/08","21:30",0.0,12.3,87.8,1018.0,310.2,1.7,2.1,324.1,0.00,10.4,19.5,"21:22:14",1
"22/10/08","21:40",0.0,12.3,88.6,1017.5,320.7,1.8,2.7,341.9,0.00,10.5,19.2,"21:37:50",1
"22/10/08","21:50",0.0,12.5,88.9,1018.2,326.7,2.2,3.2,342.0,0.00,10.8,19.2,"21:44:10",1
"22/10/08","22:00",0.0,12.5,89.1,1018.0,324.6,2.2,3.4,309.2,0.00,10.8,19.1,"21:52:44",1
"22/10/08","22:10",0.0,12.4,89.3,1018.2,328.1,1.8,2.8,341.1,0.00,10.7,19.2,"22:08:10",1
"22/10/08","22:20",0.0,12.4,89.5,1018.2,330.0,2.2,3.6,335.5,0.00,10.8,19.2,"22:12:54",1
"22/10/08","22:30",0.0,12.5,89.6,1018.0,328.9,2.5,3.6,334.7,0.00,10.9,19.2,"22:24:56",1
"22/10/08","22:40",0.0,12.6,89.6,1018.2,328.0,2.6,3.6,331.5,0.00,11.0,19.1,"22:33:22",1
"22/10/08","22:50",0.0,12.6,89.4,1018.2,326.9,2.6,4.1,334.5,0.00,10.9,19.0,"22:42:08",1
"22/10/08","23:00",0.0,12.8,89.0,1018.5,322.6,2.2,4.3,311.5,0.00,11.1,19.0,"22:54:58",1
"22/10/08","23:10",0.0,13.0,88.5,1018.2,340.2,2.2,3.7,335.0,0.00,11.2,18.8,"23:04:36",1
"22/10/08","23:20",0.0,12.9,88.0,1018.2,329.1,2.2,3.9,334.7,0.00,11.0,18.8,"23:11:00",1
"22/10/08","23:30",0.0,12.7,88.1,1018.2,330.2,2.2,3.9,341.3,0.00,10.8,19.0,"23:26:32",1
"22/10/08","23:40",0.0,12.6,88.3,1018.5,329.9,1.7,2.7,333.4,0.00,10.8,18.8,"23:33:28",1
"22/10/08","23:50",0.0,12.5,88.7,1018.5,324.2,2.3,3.6,327.4,0.00,10.7,18.7,"23:46:16",1
"22/10/08","24:00",0.0,12.5,88.9,1018.2,328.5,2.5,3.7,309.9,0.00,10.8,18.8,"23:59:40",1
